Location: Estes Park
(40.3770°N, 105.5210°W)
Time: 11:03:57
(UTC-06:00)

Vanguard 2 Rocket - All Passes

Search period start: 17 October 2017 00:00
Search period end: 27 October 2017 00:00
Orbit: 555 x 3327 km, 32.9° (Epoch: 16 October)

Date Brightness Start Highest point End Pass type
(mag) Time Alt. Az. Time Alt. Az. Time Alt. Az.
17 Oct - 12:28:52 10° SSW 12:33:15 22° SE 12:39:29 10° E daylight
17 Oct - 14:38:47 10° WSW 14:45:45 52° SSE 14:58:03 10° E daylight
17 Oct - 16:50:46 10° W 17:00:19 57° S 17:16:40 10° ESE daylight
17 Oct - 19:04:18 10° W 19:16:13 40° SSW 19:33:17 10° SE visible
17 Oct - 21:22:10 10° WSW 21:32:16 19° SW 21:43:46 10° S visible
18 Oct - 11:32:48 10° SSE 11:34:35 11° SE 11:36:35 10° ESE daylight
18 Oct - 13:40:29 10° SW 13:46:18 42° SSE 13:56:07 10° E daylight
18 Oct - 15:51:53 10° WSW 16:00:03 58° S 16:14:30 10° ESE daylight
18 Oct - 18:04:41 10° W 18:15:22 46° SSW 18:32:05 10° SE daylight
18 Oct - 20:20:14 10° W 20:31:22 25° SW 20:45:18 10° S visible
19 Oct - 12:42:29 10° SSW 12:47:14 30° SSE 12:54:29 10° E daylight
19 Oct - 14:53:15 10° WSW 15:00:09 55° S 15:12:25 10° ESE daylight
19 Oct - 17:05:28 10° W 17:14:47 50° SSW 17:30:26 10° SE daylight
19 Oct - 19:19:35 10° W 19:30:29 31° SSW 19:45:32 10° SSE visible
19 Oct - 21:44:16 10° SW 21:46:21 10° SW 21:48:29 10° SW visible
20 Oct - 11:45:02 10° S 11:48:27 18° SE 11:52:54 10° ESE daylight
20 Oct - 13:54:48 10° WSW 14:00:37 48° SSE 14:10:38 10° E daylight
20 Oct - 16:06:32 10° W 16:14:32 53° S 16:28:33 10° ESE daylight
20 Oct - 18:19:41 10° W 18:29:45 36° SSW 18:44:56 10° SE visible
20 Oct - 20:37:31 10° WSW 20:45:33 16° SW 20:54:58 10° S visible
21 Oct - 12:56:35 10° SW 13:01:26 37° SSE 13:09:11 10° E daylight
21 Oct - 15:07:50 10° WSW 15:14:38 53° S 15:26:41 10° ESE daylight
21 Oct - 17:20:18 10° W 17:29:15 41° SSW 17:43:46 10° SE daylight
21 Oct - 19:35:39 10° WSW 19:44:48 21° SSW 19:56:40 10° S visible
22 Oct - 11:58:36 10° SSW 12:02:31 26° SSE 12:08:02 10° E daylight
22 Oct - 14:09:18 10° WSW 14:15:04 50° S 14:25:01 10° ESE daylight
22 Oct - 16:21:17 10° W 16:29:03 45° SSW 16:42:17 10° SE daylight
22 Oct - 18:35:09 10° WSW 18:44:11 26° SSW 18:56:58 10° SSE visible
23 Oct - 11:01:11 10° S 11:03:48 15° SSE 11:06:54 10° ESE daylight
23 Oct - 13:10:55 10° WSW 13:15:48 43° SSE 13:23:43 10° E daylight
23 Oct - 15:22:30 10° WSW 15:29:10 47° S 15:40:43 10° ESE daylight
23 Oct - 17:35:26 10° W 17:43:45 31° SSW 17:56:29 10° SSE daylight
23 Oct - 19:54:00 10° SW 19:59:12 13° SW 20:05:10 10° SSW visible
24 Oct - 12:12:41 10° SW 12:16:48 33° SSE 12:22:47 10° E daylight
24 Oct - 14:23:54 10° WSW 14:29:35 47° S 14:39:17 10° ESE daylight
24 Oct - 16:36:12 10° W 16:43:36 35° SSW 16:55:32 10° SE daylight
24 Oct - 18:51:41 10° WSW 18:58:40 17° SSW 19:07:35 10° S visible
25 Oct - 11:14:40 10° SSW 11:17:58 22° SSE 11:22:09 10° ESE daylight
25 Oct - 13:25:26 10° WSW 13:30:17 44° S 13:38:08 10° ESE daylight
25 Oct - 15:37:19 10° WSW 15:43:44 38° SSW 15:54:24 10° SE daylight
25 Oct - 17:51:11 10° WSW 17:58:18 21° SSW 18:08:13 10° SSE daylight
26 Oct - 10:17:07 10° S 10:19:14 14° SSE 10:21:30 10° ESE daylight
26 Oct - 12:27:03 10° WSW 12:31:13 37° S 12:37:22 10° ESE daylight
26 Oct - 14:38:37 10° WSW 14:44:09 40° S 14:53:18 10° ESE daylight
26 Oct - 16:51:32 10° WSW 16:58:11 25° SSW 17:08:05 10° SSE daylight
